Date String (YYYY-MM-DD hh:mm:ss) UTC,Instrument flags,Ambient pressure (hPa),Sample flow (lpm),Bypass flow (lpm),Sample temperature (°C),Ambient temperature (°C),ASC tube jacket temperature (°C),LED temperature (°C),Box temperature (°C),Sample RH (%),Span deviation,Mass concentration (μg/m³),Mass concentration (μg/m³),Mass concentration (μg/m³)
DateTimeUTC,F1_M11,P_M11,Q1_M11,Q2_M11,T1_M11,T2_M11,T3_M11,T4_M11,T5_M11,U1_M11,ZSPAN_M11,X0_M11,X2_M11,X1_M11
2022-08-10 01:00:00,,0829.8,4.99,0.00,29.4,27.4,00.0,38.1,31.2,24.5,0000.0,0010.30,0005.26,0004.49
2022-08-10 01:01:00,,0829.8,5.00,0.00,29.4,27.3,00.0,38.1,31.2,24.3,0000.0,0010.50,0005.27,0004.50
2022-08-10 01:02:00,,0830.0,5.01,0.00,29.3,27.4,00.0,38.1,31.1,23.1,0000.0,0011.69,0005.24,0004.49
2022-08-10 01:03:00,,0829.8,4.99,0.00,29.3,27.5,00.0,38.1,31.2,22.8,0000.0,0011.57,0005.22,0004.47
2022-08-10 01:04:00,,0829.9,5.01,0.00,29.4,27.7,00.0,38.1,31.2,22.9,0000.0,0011.14,0005.19,0004.45
2022-08-10 01:05:00,,0829.9,5.00,0.00,29.4,28.0,00.0,38.1,31.4,22.9,0000.0,0011.05,0005.17,0004.44
2022-08-10 01:06:00,,0830.0,5.00,0.00,29.5,28.2,00.0,38.1,31.4,22.9,0000.0,0011.24,0005.21,0004.44
2022-08-10 01:07:00,,0829.9,5.00,0.00,29.5,28.3,00.0,38.2,31.5,24.2,0000.0,0011.40,0005.19,0004.45
2022-08-10 01:08:00,,0830.0,5.00,0.00,29.5,27.9,00.0,38.1,31.4,23.0,0000.0,0011.42,0005.21,0004.44
2022-08-10 01:09:00,,0829.9,5.01,0.00,29.5,27.3,00.0,38.1,31.2,23.8,0000.0,0011.60,0005.26,0004.45
2022-08-10 01:10:00,,0829.9,4.99,0.00,29.4,27.2,00.0,38.1,31.2,26.7,0000.0,0011.49,0005.22,0004.44
2022-08-10 01:11:00,,0829.9,5.01,0.00,29.4,27.3,00.0,38.1,31.1,26.8,0000.0,0011.46,0005.21,0004.44
2022-08-10 01:12:00,,0830.0,4.99,0.00,29.3,27.5,00.0,38.1,31.1,26.8,0000.0,0011.31,0005.20,0004.43
2022-08-10 01:13:00,,0829.9,5.01,0.00,29.3,27.7,00.0,38.1,31.2,26.4,0000.0,0010.19,0005.22,0004.43
2022-08-10 01:14:00,,0830.0,5.00,0.00,29.4,27.9,00.0,38.1,31.3,26.8,0000.0,0010.97,0005.29,0004.43
2022-08-10 01:15:00,,0830.0,5.00,0.00,29.4,28.1,00.0,38.1,31.4,26.9,0000.0,0011.70,0005.29,0004.44
2022-08-10 01:16:00,,0830.0,4.99,0.00,29.5,28.3,00.0,38.2,31.5,26.7,0000.0,0012.83,0005.34,0004.44
2022-08-10 01:17:00,,0830.0,5.01,0.00,29.5,28.0,00.0,38.2,31.4,26.6,0000.0,0013.36,0005.36,0004.44
2022-08-10 01:18:00,,0830.0,5.00,0.00,29.5,27.4,00.0,38.1,31.2,26.1,0000.0,0013.50,0005.37,0004.42
2022-08-10 01:19:00,,0830.0,4.99,0.00,29.4,27.2,00.0,38.1,31.2,26.0,0000.0,0014.77,0005.37,0004.42
2022-08-10 01:20:00,,0830.1,5.01,0.00,29.4,27.3,00.0,38.1,31.1,25.9,0000.0,0014.70,0005.33,0004.41
2022-08-10 01:21:00,,0830.1,5.00,0.00,29.3,27.5,00.0,38.1,31.1,26.3,0000.0,0014.71,0005.39,0004.40
2022-08-10 01:22:00,,0830.1,5.01,0.00,29.3,27.7,00.0,38.1,31.2,26.6,0000.0,0015.22,0005.48,0004.41
2022-08-10 01:23:00,,0830.1,4.99,0.00,29.4,27.9,00.0,38.1,31.3,27.1,0000.0,0015.53,0005.53,0004.41
2022-08-10 01:24:00,,0830.1,4.99,0.00,29.4,28.1,00.0,38.1,31.4,26.4,0000.0,0015.76,0005.57,0004.42
2022-08-10 01:25:00,,0830.1,5.00,0.00,29.5,28.3,00.0,38.2,31.5,26.4,0000.0,0015.88,0005.52,0004.41
2022-08-10 01:26:00,,0830.1,5.00,0.00,29.5,28.3,00.0,38.2,31.5,25.9,0000.0,0015.41,0005.57,0004.41
2022-08-10 01:27:00,,0830.1,5.01,0.00,29.5,27.8,00.0,38.2,31.3,25.7,0000.0,0015.19,0005.55,0004.41
2022-08-10 01:28:00,,0830.0,5.00,0.00,29.4,27.3,00.0,38.1,31.2,25.9,0000.0,0014.78,0005.54,0004.41
2022-08-10 01:29:00,,0830.1,5.00,0.00,29.4,27.2,00.0,38.1,31.2,26.3,0000.0,0015.00,0005.54,0004.41
2022-08-10 01:30:00,,0830.1,4.99,0.00,29.3,27.3,00.0,38.1,31.1,26.6,0000.0,0014.75,0005.54,0004.41
2022-08-10 01:31:00,,0830.1,5.01,0.00,29.3,27.5,00.0,38.1,31.2,26.9,0000.0,0015.09,0005.55,0004.42
2022-08-10 01:32:00,,0830.1,4.99,0.00,29.4,27.8,00.0,38.1,31.3,27.4,0000.0,0015.99,0005.50,0004.43
2022-08-10 01:33:00,,0830.1,5.00,0.00,29.4,28.0,00.0,38.1,31.4,27.6,0000.0,0015.95,0005.45,0004.43
2022-08-10 01:34:00,,0830.1,5.01,0.00,29.5,28.2,00.0,38.2,31.4,27.3,0000.0,0016.67,0005.48,0004.44
2022-08-10 01:35:00,,0830.1,5.01,0.00,29.5,28.3,00.0,38.2,31.5,26.9,0000.0,0016.82,0005.44,0004.43
2022-08-10 01:36:00,,0830.1,4.99,0.00,29.5,27.8,00.0,38.2,31.3,27.0,0000.0,0016.22,0005.43,0004.44
2022-08-10 01:37:00,,0830.1,5.00,0.00,29.4,27.3,00.0,38.1,31.2,27.4,0000.0,0015.92,0005.44,0004.45
2022-08-10 01:38:00,,0830.2,4.98,0.00,29.4,27.2,00.0,38.1,31.2,27.4,0000.0,0015.86,0005.45,0004.45
2022-08-10 01:39:00,,0830.2,5.01,0.00,29.3,27.3,00.0,38.1,31.1,27.6,0000.0,0016.41,0005.44,0004.44
2022-08-10 01:40:00,,0830.2,5.00,0.00,29.3,27.5,00.0,38.1,31.1,27.5,0000.0,0017.09,0005.47,0004.44
2022-08-10 01:41:00,,0830.2,5.00,0.00,29.3,27.7,00.0,38.1,31.2,27.2,0000.0,0017.05,0005.45,0004.45
2022-08-10 01:42:00,,0830.3,4.99,0.00,29.4,27.9,00.0,38.1,31.3,26.9,0000.0,0017.25,0005.46,0004.44
2022-08-10 01:43:00,,0830.2,5.00,0.00,29.4,28.1,00.0,38.1,31.4,26.5,0000.0,0016.16,0005.50,0004.44
2022-08-10 01:44:00,,0830.3,5.00,0.00,29.5,28.3,00.0,38.2,31.5,26.8,0000.0,0016.58,0005.55,0004.44
2022-08-10 01:45:00,,0830.2,5.00,0.00,29.5,28.4,00.0,38.2,31.5,26.9,0000.0,0016.39,0005.52,0004.43
2022-08-10 01:46:00,,0830.2,5.01,0.00,29.5,28.0,00.0,38.2,31.4,26.8,0000.0,0017.04,0005.52,0004.43
2022-08-10 01:47:00,,0830.3,4.99,0.00,29.5,27.4,00.0,38.2,31.2,26.8,0000.0,0016.92,0005.56,0004.44
2022-08-10 01:48:00,,0830.2,5.01,0.00,29.4,27.2,00.0,38.1,31.2,27.0,0000.0,0017.22,0005.59,0004.44
2022-08-10 01:49:00,,0830.2,5.01,0.00,29.4,27.3,00.0,38.1,31.2,27.0,0000.0,0017.05,0005.60,0004.45
2022-08-10 01:50:00,,0830.3,4.99,0.00,29.3,27.5,00.0,38.1,31.2,27.1,0000.0,0016.45,0005.61,0004.47
2022-08-10 01:51:00,,0830.3,5.01,0.00,29.4,27.7,00.0,38.1,31.2,27.0,0000.0,0016.15,0005.63,0004.47
2022-08-10 01:52:00,,0830.3,4.99,0.00,29.4,27.9,00.0,38.1,31.3,27.0,0000.0,0016.29,0005.64,0004.48
2022-08-10 01:53:00,,0830.3,5.00,0.00,29.4,28.1,00.0,38.2,31.4,26.9,0000.0,0015.55,0005.60,0004.48
2022-08-10 01:54:00,,0830.4,5.00,0.00,29.5,28.3,00.0,38.2,31.5,26.8,0000.0,0015.45,0005.61,0004.48
2022-08-10 01:55:00,,0830.4,5.00,0.00,29.5,28.2,00.0,38.2,31.4,26.8,0000.0,0015.26,0005.60,0004.48
2022-08-10 01:56:00,,0830.4,5.00,0.00,29.5,27.6,00.0,38.2,31.3,26.8,0000.0,0015.32,0005.55,0004.48
2022-08-10 01:57:00,,0830.4,4.99,0.00,29.4,27.2,00.0,38.1,31.2,26.9,0000.0,0015.36,0005.59,0004.48
2022-08-10 01:58:00,,0830.5,5.01,0.00,29.4,27.1,00.0,38.1,31.1,27.0,0000.0,0016.17,0005.59,0004.49
2022-08-10 01:59:00,,0830.4,4.99,0.00,29.3,27.2,00.0,38.1,31.1,27.2,0000.0,0017.19,0005.56,0004.49
